This demonstration page uses our WeatherBlox Daily Observations layout. Learn more.

40.92945, -100.16068

Hourly Observations for January 9, 2017

Temp ( °F °C ) Dew Point ( °F °C ) Humidity (%) Winds ( mph kmh ) Pressure ( in mb ) Visibility ( mi km ) Precip ( " mm )
12:15 am 00:15 Mostly Cloudy 19 -7.1 16 -9 86 86 SSW 3 6 30.36 1028 10 16.0934 0 0
12:35 am 00:35 Mostly Cloudy 19 -7.2 16 -9.1 86 86 Calm 30.36 1028 10 16.0934 0 0
12:55 am 00:55 Cloudy 20 -6.6 17 -8.3 88 88 Calm 30.33 1027 10 16.0934 0 0
1:15 am 01:15 Cloudy 21 -6.2 18 -8 87 87 Calm 30.33 1027 10 16.0934 0 0
1:35 am 01:35 Cloudy 21 -6 18 -8 86 86 Calm 30.33 1027 10 16.0934 0 0
1:55 am 01:55 Cloudy 22 -5.7 18 -7.7 86 86 E 5 7 30.3 1026 10 16.0934 0 0
2:15 am 02:15 Mostly Cloudy 22 -5.8 18 -7.9 85 85 E 5 7 30.3 1026 10 16.0934 0 0
2:35 am 02:35 Clear 20 -6.5 17 -8.3 87 87 ESE 5 7 30.27 1025 10 16.0934 0 0
2:55 am 02:55 Clear 21 -6.2 16 -8.7 83 83 SSE 3 6 30.27 1025 10 16.0934 0 0
3:15 am 03:15 Clear 19 -7.4 15 -9.7 84 84 SE 5 7 30.3 1026 10 16.0934 0 0
3:35 am 03:35 Clear 19 -7 16 -8.8 87 87 ESE 7 11 30.24 1024 10 16.0934 0 0
3:55 am 03:55 Partly Cloudy 21 -6.1 17 -8.2 85 85 SE 7 11 30.21 1023 10 16.0934 0 0
4:15 am 04:15 Partly Cloudy 21 -6.1 17 -8.5 83 83 SE 8 13 30.21 1023 10 16.0934 0 0
4:35 am 04:35 Clear 21 -6.2 16 -8.8 82 82 SE 9 15 30.21 1023 10 16.0934 0 0
4:55 am 04:55 Clear 21 -6.1 15 -9.2 79 79 ESE 10 17 30.18 1022 10 16.0934 0 0
5:15 am 05:15 Clear 20 -6.5 15 -9.5 80 80 SE 12 19 30.15 1021 10 16.0934 0 0
5:35 am 05:35 Clear 20 -6.8 14 -10 78 78 SE 9 15 30.18 1022 10 16.0934 0 0
5:55 am 05:55 Clear 20 -6.8 13 -10.3 76 76 SE 8 13 30.15 1021 10 16.0934 0 0
6:15 am 06:15 Clear 20 -6.5 13 -10.3 75 75 SE 7 11 30.18 1022 10 16.0934 0 0
6:35 am 06:35 Clear 21 -6.3 14 -10 75 75 SSE 9 15 30.15 1021 10 16.0934 0 0
6:55 am 06:55 Clear 20 -6.5 14 -10 76 76 SE 8 13 30.12 1020 10 16.0934 0 0
7:15 am 07:15 Clear 20 -6.8 14 -10 78 78 SSE 9 15 30.12 1020 10 16.0934 0 0
7:35 am 07:35 Clear 21 -6.3 15 -9.6 78 78 SE 10 17 30.12 1020 10 16.0934 0 0
7:55 am 07:55 Clear 21 -6.1 15 -9.5 77 77 SE 10 17 30.09 1019 10 16.0934 0 0
8:15 am 08:15 Sunny 21 -6 15 -9.2 78 78 SE 14 22 30.09 1019 10 16.0934 0 0
8:35 am 08:35 Sunny 22 -5.6 16 -8.8 78 78 SE 10 17 30.06 1018 10 16.0934 0 0
8:55 am 08:55 Sunny 22 -5.5 17 -8.5 80 80 SE 13 20 30.03 1017 10 16.0934 0 0
9:15 am 09:15 Sunny 23 -5.2 17 -8.3 79 79 SE 16 26 30 1016 10 16.0934 0 0
9:35 am 09:35 Sunny 23 -4.9 18 -8 79 79 SSE 14 22 30 1016 10 16.0934 0 0
9:55 am 09:55 Sunny 24 -4.5 19 -7.5 80 80 SSE 16 26 29.97 1015 10 16.0934 0 0
10:15 am 10:15 Sunny 25 -3.8 19 -7 79 79 SSE 9 15 30 1016 10 16.0934 0 0
10:35 am 10:35 Sunny 26 -3.2 20 -6.6 78 78 SSE 10 17 29.94 1014 10 16.0934 0 0
10:55 am 10:55 Sunny 28 -2.5 21 -6.2 76 76 SSE 10 17 29.94 1014 10 16.0934 0 0
11:15 am 11:15 Sunny 29 -1.9 22 -5.5 77 77 SSE 6 9 29.91 1013 10 16.0934 0 0
11:35 am 11:35 Sunny 31 -0.6 23 -4.9 73 73 S 8 13 29.88 1012 10 16.0934 0 0
11:55 am 11:55 Sunny 32 0.2 24 -4.7 70 70 SSW 13 20 29.88 1012 10 16.0934 0 0
12:15 pm 12:15 Sunny 32 0 24 -4.6 71 71 S 7 11 29.85 1011 10 16.0934 0 0
12:35 pm 12:35 Sunny 33 0.5 24 -4.2 71 71 S 8 13 29.83 1010 10 16.0934 0 0
12:55 pm 12:55 Sunny 33 0.4 25 -4 73 73 SSW 7 11 29.83 1010 10 16.0934 0 0
1:15 pm 13:15 Sunny 33 0.8 25 -3.9 71 71 SSW 8 13 29.8 1009 10 16.0934 0 0
1:35 pm 13:35 Partly Cloudy 34 1.2 26 -3.5 71 71 SSW 7 11 29.77 1008 10 16.0934 0 0
1:55 pm 13:55 Mostly Cloudy 35 1.7 26 -3.1 71 71 S 7 11 29.74 1007 10 16.0934 0 0
2:15 pm 14:15 Mostly Cloudy 36 2.1 27 -2.8 70 70 SSW 5 7 29.74 1007 10 16.0934 0 0
2:35 pm 14:35 Partly Cloudy 36 2.3 28 -2.3 72 72 S 7 11 29.74 1007 10 16.0934 0 0
2:55 pm 14:55 Mostly Cloudy 37 2.5 28 -2.2 71 71 SW 7 11 29.74 1007 10 16.0934 0 0
3:15 pm 15:15 Mostly Cloudy 37 2.6 28 -2 72 72 Calm 29.71 1006 10 16.0934 0 0
3:35 pm 15:35 Mostly Cloudy 37 2.5 29 -1.7 74 74 SSW 5 7 29.71 1006 10 16.0934 0 0
3:55 pm 15:55 Partly Cloudy 37 2.5 30 -1.1 77 77 Calm 29.71 1006 10 16.0934 0 0
4:15 pm 16:15 Sunny 37 2.5 30 -1.3 76 76 S 5 7 29.71 1006 10 16.0934 0 0
4:35 pm 16:35 Mostly Cloudy 36 2.3 30 -1 79 79 S 3 6 29.71 1006 10 16.0934 0 0
4:55 pm 16:55 Partly Cloudy 36 2.2 30 -1 80 80 SE 5 7 29.68 1005 10 16.0934 0 0
5:15 pm 17:15 Mostly Cloudy 37 2.5 30 -1.1 77 77 Calm 29.68 1005 10 16.0934 0 0
5:35 pm 17:35 Partly Cloudy 35 1.5 30 -0.9 84 84 S 3 6 29.68 1005 10 16.0934 0 0
5:55 pm 17:55 Partly Cloudy 36 2 30 -1 81 81 SE 6 9 29.65 1004 10 16.0934 0 0
6:15 pm 18:15 Clear 35 1.8 30 -1.2 81 81 Calm 29.65 1004 10 16.0934 0 0
6:35 pm 18:35 Clear 34 1.3 30 -1.3 83 83 SW 6 9 29.68 1005 10 16.0934 0 0
6:55 pm 18:55 Clear 34 0.9 29 -1.5 84 84 SW 5 7 29.68 1005 10 16.0934 0 0
7:15 pm 19:15 Clear 34 1 29 -1.7 82 82 Calm 29.65 1004 10 16.0934 0 0
7:35 pm 19:35 Clear 34 1.1 29 -1.8 81 81 Calm 29.65 1004 10 16.0934 0 0
7:55 pm 19:55 Clear 30 -0.9 27 -2.7 88 88 Calm 29.68 1005 10 16.0934 0 0
8:15 pm 20:15 Clear 30 -1.2 27 -3 88 88 Calm 29.65 1004 10 16.0934 0 0
8:35 pm 20:35 Clear 29 -1.4 27 -3 89 89 N 3 6 29.65 1004 10 16.0934 0 0
8:55 pm 20:55 Clear 28 -2.4 25 -3.7 91 91 E 3 6 29.65 1004 10 16.0934 0 0
9:15 pm 21:15 Clear 29 -1.9 26 -3.1 92 92 ENE 3 6 29.62 1003 10 16.0934 0 0
9:35 pm 21:35 Clear 27 -2.6 25 -3.8 92 92 NE 5 7 29.62 1003 10 16.0934 0 0
9:55 pm 21:55 Clear 27 -3 24 -4.2 92 92 ENE 5 7 29.62 1003 10 16.0934 0 0
10:15 pm 22:15 Partly Cloudy 28 -2.5 25 -3.7 92 92 Calm 29.62 1003 10 16.0934 0 0
10:35 pm 22:35 Mostly Cloudy 29 -1.8 26 -3.1 91 91 NW 3 6 29.59 1002 10 16.0934 0 0
10:55 pm 22:55 Mostly Cloudy with Light Wintry Mix 30 -1 28 -2.3 91 91 WNW 7 11 29.62 1003 10 16.0934 0 0
11:15 pm 23:15 Partly Cloudy 29 -1.4 27 -2.7 91 91 Calm 29.59 1002 10 16.0934 0 0
11:35 pm 23:35 Clear 29 -1.9 27 -3 92 92 SE 3 6 29.56 1001 10 16.0934 0 0
11:55 pm 23:55 Partly Cloudy 28 -2.4 26 -3.4 93 93 Calm 29.56 1001 10 16.0934 0 0

Powered by AerisWeather